Weather History for K2G4 - November, 2012

Change the Weather History Date:

Saturday, November 17, 2012

  Actual Average (KMGW) Record (KMGW)
Temperature  
Mean Temperature 39 °F 44 °F  
Max Temperature 46 °F 53 °F 79 °F (1958)
Min Temperature 32 °F 36 °F 13 °F (1959)
Degree Days  
Heating Degree Days 26 21  
Month to date heating degree days 304  
Since 1 July heating degree days 746  
Cooling Degree Days 0 0  
Month to date cooling degree days 0  
Year to date cooling degree days 813  
Moisture  
Dew Point 23 °F    
Average Humidity 61    
Maximum Humidity 80    
Minimum Humidity 34    
Precipitation  
Precipitation 0.00 in 0.13 in 1.13 in (1980)
Month to date precipitation 1.94  
Year to date precipitation 37.40  
Sea Level Pressure  
Sea Level Pressure 30.49 in    
Wind  
Wind Speed 8 mph (ESE)    
Max Wind Speed 14 mph    
Max Gust Speed 18 mph    
Visibility 10 miles    
Events      
T = Trace of Precipitation, MM = Missing Value Source: NWS Daily Summary

Daily Weather History Graph

Daily Weather History Graph

Search for Another Location

Airport or City:

Trip Planner

Search our weather history database for the weather conditions in past years. The results will help you decide how hot, cold, wet, or windy it might be!

Date:

Astronomy

Nov. 17, 2012 Rise Set
Actual Time 7:04 AM EST 5:00 PM EST
Civil Twilight 6:35 AM EST 5:29 PM EST
Nautical Twilight 6:02 AM EST 6:01 PM EST
Astronomical Twilight 5:30 AM EST 6:33 PM EST
Moon 10:47 AM EST (11/17) 9:07 PM EST (11/17)
Length of Visible Light 10h 53m
Length of Day
9h 55m
Waxing Crescent, 20% of the Moon is Illuminated
Nov 17
Waxing Crescent
Nov 20
First Quarter
Nov 28
Full
Dec 6
Last Quarter
Dec 13
New

Hourly Weather History & Observations

Time (EST) Temp. Windchill Dew Point Humidity Pressure Visibility Wind Dir Wind Speed Gust Speed Precip Events Conditions
12:00 AM 33.8 °F - 26.6 °F 75% 30.41 in 10.0 mi Calm Calm - N/A   Clear
12:25 AM 33.8 °F 29.6 °F 24.8 °F 70% 30.41 in 10.0 mi NE 4.6 mph - N/A   Clear
12:45 AM 33.8 °F 29.6 °F 24.8 °F 70% 30.41 in 10.0 mi NE 4.6 mph - N/A   Clear
1:05 AM 33.8 °F 29.6 °F 24.8 °F 70% 30.42 in 10.0 mi NNE 4.6 mph - N/A   Clear
1:25 AM 33.8 °F 28.6 °F 24.8 °F 70% 30.42 in 10.0 mi NNE 5.8 mph - N/A   Clear
1:50 AM 33.8 °F 29.6 °F 26.6 °F 75% 30.42 in 10.0 mi NE 4.6 mph - N/A   Clear
2:10 AM 32.0 °F 27.5 °F 26.6 °F 80% 30.43 in 10.0 mi ENE 4.6 mph - N/A   Clear
2:55 AM 32.0 °F 24.8 °F 24.8 °F 75% 30.42 in 10.0 mi East 8.1 mph - N/A   Clear
3:15 AM 32.0 °F 24.8 °F 23.0 °F 69% 30.43 in 10.0 mi East 8.1 mph - N/A   Clear
3:35 AM 32.0 °F 26.4 °F 24.8 °F 75% 30.43 in 10.0 mi East 5.8 mph - N/A   Clear
3:55 AM 32.0 °F 24.8 °F 24.8 °F 75% 30.43 in 10.0 mi East 8.1 mph - N/A   Clear
4:20 AM 32.0 °F 23.0 °F 26.6 °F 80% 30.43 in 10.0 mi East 11.5 mph 16.1 mph N/A   Clear
4:40 AM 32.0 °F 22.1 °F 24.8 °F 75% 30.43 in 10.0 mi East 13.8 mph - N/A   Clear
5:00 AM 32.0 °F 23.0 °F 24.8 °F 75% 30.44 in 10.0 mi East 11.5 mph - N/A   Clear
5:20 AM 32.0 °F 24.2 °F 24.8 °F 75% 30.44 in 10.0 mi East 9.2 mph - N/A   Clear
5:45 AM 32.0 °F 23.6 °F 24.8 °F 75% 30.45 in 10.0 mi East 10.4 mph - N/A   Clear
6:25 AM 32.0 °F 24.2 °F 23.0 °F 69% 30.46 in 10.0 mi East 9.2 mph - N/A   Clear
6:45 AM 32.0 °F 24.2 °F 23.0 °F 69% 30.47 in 10.0 mi East 9.2 mph - N/A   Clear
7:10 AM 32.0 °F 23.0 °F 23.0 °F 69% 30.48 in 10.0 mi East 11.5 mph - N/A   Clear
7:50 AM 32.0 °F 22.5 °F 23.0 °F 69% 30.49 in 10.0 mi East 12.7 mph - N/A   Clear
8:10 AM 32.0 °F 23.0 °F 24.8 °F 75% 30.49 in 10.0 mi East 11.5 mph 18.4 mph N/A   Clear
8:35 AM 33.8 °F 25.3 °F 24.8 °F 70% 30.50 in 10.0 mi East 11.5 mph - N/A   Clear
8:55 AM 33.8 °F 25.8 °F 26.6 °F 75% 30.51 in 10.0 mi East 10.4 mph - N/A   Clear
9:15 AM 35.6 °F 28.0 °F 26.6 °F 70% 30.51 in 10.0 mi ESE 10.4 mph - N/A   Clear
9:35 AM 35.6 °F 27.5 °F 26.6 °F 70% 30.51 in 10.0 mi ESE 11.5 mph - N/A   Clear
10:00 AM 37.4 °F 30.3 °F 26.6 °F 65% 30.52 in 10.0 mi ESE 10.4 mph - N/A   Clear
10:20 AM 37.4 °F 29.8 °F 23.0 °F 56% 30.53 in 10.0 mi ESE 11.5 mph - N/A   Clear
10:40 AM 41.0 °F 34.3 °F 21.2 °F 45% 30.53 in 10.0 mi ESE 11.5 mph - N/A   Clear
11:00 AM 41.0 °F 34.3 °F 23.0 °F 49% 30.53 in 10.0 mi ESE 11.5 mph - N/A   Clear
11:25 AM 42.8 °F 37.5 °F 23.0 °F 46% 30.52 in 10.0 mi East 9.2 mph - N/A   Clear
11:45 AM 42.8 °F 38.6 °F 23.0 °F 46% 30.52 in 10.0 mi ESE 6.9 mph - N/A   Clear
12:05 PM 44.6 °F 40.7 °F 23.0 °F 43% 30.52 in 10.0 mi ESE 6.9 mph - N/A   Clear
12:25 PM 44.6 °F 39.7 °F 21.2 °F 39% 30.51 in 10.0 mi ESE 9.2 mph - N/A   Clear
12:45 PM 44.6 °F 39.7 °F 19.4 °F 37% 30.50 in 10.0 mi East 9.2 mph - N/A   Clear
1:10 PM 46.4 °F 42.4 °F 21.2 °F 37% 30.50 in 10.0 mi ESE 8.1 mph - N/A   Clear
1:30 PM 46.4 °F 41.9 °F 21.2 °F 37% 30.49 in 10.0 mi ESE 9.2 mph - N/A   Clear
1:50 PM 46.4 °F 42.4 °F 21.2 °F 37% 30.50 in 10.0 mi ESE 8.1 mph - N/A   Clear
2:55 PM 44.6 °F 38.8 °F 17.6 °F 34% 30.49 in 10.0 mi ESE 11.5 mph - N/A   Clear
3:15 PM 44.6 °F 40.2 °F 17.6 °F 34% 30.49 in 10.0 mi ESE 8.1 mph - N/A   Clear
3:35 PM 44.6 °F 39.7 °F 17.6 °F 34% 30.49 in 10.0 mi ESE 9.2 mph - N/A   Clear
4:00 PM 42.8 °F 38.0 °F 19.4 °F 39% 30.50 in 10.0 mi ESE 8.1 mph - N/A   Clear
4:20 PM 42.8 °F 38.0 °F 19.4 °F 39% 30.50 in 10.0 mi ESE 8.1 mph - N/A   Clear
4:40 PM 41.0 °F 35.8 °F 19.4 °F 42% 30.51 in 10.0 mi ESE 8.1 mph - N/A   Clear
5:00 PM 39.2 °F 34.2 °F 21.2 °F 49% 30.51 in 10.0 mi ESE 6.9 mph - N/A   Clear
5:25 PM 37.4 °F 30.8 °F 21.2 °F 52% 30.52 in 10.0 mi ESE 9.2 mph - N/A   Clear
5:45 PM 37.4 °F 30.8 °F 21.2 °F 52% 30.52 in 10.0 mi ESE 9.2 mph - N/A   Clear
6:05 PM 35.6 °F 28.6 °F 21.2 °F 56% 30.52 in 10.0 mi ESE 9.2 mph - N/A   Clear
6:50 PM 35.6 °F 28.0 °F 23.0 °F 60% 30.51 in 10.0 mi ESE 10.4 mph - N/A   Clear
7:10 PM 35.6 °F 28.6 °F 23.0 °F 60% 30.51 in 10.0 mi ESE 9.2 mph - N/A   Clear
7:30 PM 35.6 °F 28.0 °F 23.0 °F 60% 30.50 in 10.0 mi ESE 10.4 mph - N/A   Clear
7:50 PM 35.6 °F 27.5 °F 23.0 °F 60% 30.50 in 10.0 mi East 11.5 mph - N/A   Clear
8:15 PM 35.6 °F 28.6 °F 23.0 °F 60% 30.50 in 10.0 mi ESE 9.2 mph - N/A   Clear
8:35 PM 33.8 °F 25.8 °F 23.0 °F 65% 30.51 in 10.0 mi ESE 10.4 mph - N/A   Clear
8:55 PM 35.6 °F 27.1 °F 23.0 °F 60% 30.51 in 10.0 mi ESE 12.7 mph - N/A   Clear
9:15 PM 35.6 °F 27.1 °F 23.0 °F 60% 30.51 in 10.0 mi ESE 12.7 mph - N/A   Clear
9:40 PM 33.8 °F 25.3 °F 23.0 °F 65% 30.51 in 10.0 mi ESE 11.5 mph - N/A   Clear
10:00 PM 33.8 °F 24.3 °F 23.0 °F 65% 30.51 in 10.0 mi ESE 13.8 mph - N/A   Clear
10:20 PM 33.8 °F 26.4 °F 23.0 °F 65% 30.51 in 10.0 mi ESE 9.2 mph - N/A   Clear
10:40 PM 33.8 °F 25.8 °F 24.8 °F 70% 30.51 in 10.0 mi ESE 10.4 mph - N/A   Clear
11:05 PM 33.8 °F 27.0 °F 24.8 °F 70% 30.51 in 10.0 mi ESE 8.1 mph - N/A   Clear
11:25 PM 33.8 °F 25.8 °F 24.8 °F 70% 30.51 in 10.0 mi ESE 10.4 mph - N/A   Clear
11:45 PM 33.8 °F 25.8 °F 26.6 °F 75% 30.50 in 10.0 mi ESE 10.4 mph - N/A   Clear